Location: Mohawk View
(42.7837°N, 73.7885°W)
Time: 08:29:08
(UTC+00:00)

NOSS 3-1 (C) - Pass Details

Date: 17 June 2021
Orbit: 724 x 1485 km, 63.4° (Epoch: 20 July)

Event Time Altitude Azimuth Distance (km) Brightness Sun altitude
Exits shadow 06:18:59 27° 254° (WSW) 1,520 4.2 -21.1°
Maximum altitude 06:21:41 49° 314° (NW) 1,101 3.9 -21.0°
Drops below altitude 10° 06:27:44 10° 29° (NNE) 2,733 7.0 -20.5°
Sets 06:30:40 0° 35° (NE) 3,810 8.1 -20.3°
